Location: ?????
(31.8092°N, 35.2590°E)
Time: 01:00:05
(UTC+00:00)

Cosmos 2227 - Pass Details

Date: 20 June 2021
Orbit: 835 x 861 km, 71.0° (Epoch: 04 August)

Event Time Altitude Azimuth Distance (km) Brightness Sun altitude
Rises 17:32:10 0° 343° (NNW) 3,386 8.3 -8.9°
Reaches altitude 10° 17:34:38 10° 345° (NNW) 2,449 7.4 -9.3°
Maximum altitude 17:40:14 68° 69° (ENE) 897 4.2 -10.3°
Enters shadow 17:45:31 12° 152° (SSE) 2,335 5.9 -11.2°
